Time,TemperatureF,DewpointF,PressureIn,WindDirection,WindDirectionDegrees,WindSpeedMPH,WindSpeedGustMPH,Humidity,HourlyPrecipIn,Conditions,Clouds,dailyrainin,SoftwareType,DateUTC
2013-06-05 00:03:00,69.0,-99.9,30.11,WSW,251,1.0,1.0,-999,-99.99,,,-99.99,,2013-06-05 04:03:00,
2013-06-05 00:13:00,68.0,-99.9,30.11,SSW,208,1.0,2.0,-999,-99.99,,,-99.99,,2013-06-05 04:13:00,
2013-06-05 00:23:00,-999.0,-99.9,30.11,SSW,195,1.0,2.0,-999,-99.99,,,-99.99,,2013-06-05 04:23:00,
2013-06-05 00:33:00,68.0,-99.9,30.11,SE,130,1.0,2.0,-999,-99.99,,,-99.99,,2013-06-05 04:33:00,
2013-06-05 00:43:00,67.0,-99.9,30.11,North,-999,-999.0,-999.0,-999,-99.99,,,-99.99,,2013-06-05 04:43:00,
2013-06-05 00:53:00,-999.0,-99.9,30.11,West,264,3.0,3.0,-999,-99.99,,,-99.99,,2013-06-05 04:53:00,
2013-06-05 01:02:00,66.0,-99.9,30.11,WNW,283,3.0,4.0,-999,-99.99,,,-99.99,,2013-06-05 05:02:00,
2013-06-05 01:12:00,66.0,-99.9,30.11,North,-999,-999.0,-999.0,-999,-99.99,,,-99.99,,2013-06-05 05:12:00,
2013-06-05 01:23:00,-999.0,-99.9,30.11,North,1,2.0,3.0,-999,-99.99,,,-99.99,,2013-06-05 05:23:00,
2013-06-05 01:32:00,67.0,-99.9,30.11,NNE,22,-999.0,2.0,-999,-99.99,,,-99.99,,2013-06-05 05:32:00,
2013-06-05 01:42:00,66.0,-99.9,30.11,East,91,2.0,2.0,-999,-99.99,,,-99.99,,2013-06-05 05:42:00,
2013-06-05 01:53:00,-999.0,-99.9,30.11,East,91,2.0,2.0,-999,-99.99,,,-99.99,,2013-06-05 05:53:00,
2013-06-05 02:02:00,67.0,-99.9,30.11,SE,128,1.0,2.0,-999,-99.99,,,-99.99,,2013-06-05 06:02:00,
2013-06-05 02:12:00,-999.0,-99.9,30.11,SE,127,1.0,2.0,-999,-99.99,,,-99.99,,2013-06-05 06:12:00,
2013-06-05 02:22:00,-999.0,-99.9,30.11,SE,137,1.0,2.0,-999,-99.99,,,-99.99,,2013-06-05 06:22:00,
2013-06-05 02:32:00,66.0,-99.9,30.11,NW,323,0.0,2.0,-999,-99.99,,,-99.99,,2013-06-05 06:32:00,
2013-06-05 02:42:00,65.0,-99.9,30.10,SSW,202,1.0,1.0,-999,-99.99,,,-99.99,,2013-06-05 06:42:00,
2013-06-05 02:52:00,65.0,-99.9,30.10,North,-999,-999.0,-999.0,-999,-99.99,,,-99.99,,2013-06-05 06:52:00,
2013-06-05 03:02:00,65.0,-99.9,30.10,SW,220,1.0,2.0,-999,-99.99,,,-99.99,,2013-06-05 07:02:00,
2013-06-05 03:12:00,-999.0,-99.9,30.10,West,273,3.0,3.0,-999,-99.99,,,-99.99,,2013-06-05 07:12:00,
2013-06-05 03:22:00,-999.0,-99.9,30.11,WNW,290,2.0,3.0,-999,-99.99,,,-99.99,,2013-06-05 07:22:00,
2013-06-05 03:32:00,65.0,-99.9,30.10,WNW,302,3.0,4.0,-999,-99.99,,,-99.99,,2013-06-05 07:32:00,
2013-06-05 03:42:00,64.0,-99.9,30.11,NW,315,2.0,3.0,-999,-99.99,,,-99.99,,2013-06-05 07:42:00,
2013-06-05 03:52:00,-999.0,-99.9,30.11,NW,306,2.0,2.0,-999,-99.99,,,-99.99,,2013-06-05 07:52:00,
2013-06-05 04:02:00,64.0,-99.9,30.11,NW,304,2.0,4.0,-999,-99.99,,,-99.99,,2013-06-05 08:02:00,
2013-06-05 04:12:00,-999.0,-99.9,30.11,WNW,303,3.0,4.0,-999,-99.99,,,-99.99,,2013-06-05 08:12:00,
2013-06-05 04:22:00,-999.0,-99.9,30.12,WNW,296,2.0,2.0,-999,-99.99,,,-99.99,,2013-06-05 08:22:00,
2013-06-05 04:32:00,64.0,-99.9,30.11,WSW,249,0.0,2.0,-999,-99.99,,,-99.99,,2013-06-05 08:32:00,
2013-06-05 04:42:00,63.0,-99.9,30.12,North,-999,-999.0,-999.0,-999,-99.99,,,-99.99,,2013-06-05 08:42:00,
2013-06-05 04:52:00,-999.0,-99.9,30.12,WSW,253,2.0,2.0,-999,-99.99,,,-99.99,,2013-06-05 08:52:00,
2013-06-05 05:02:00,63.0,-99.9,30.12,WSW,248,2.0,2.0,-999,-99.99,,,-99.99,,2013-06-05 09:02:00,
2013-06-05 05:12:00,64.0,-99.9,30.13,WSW,238,2.0,2.0,-999,-99.99,,,-99.99,,2013-06-05 09:12:00,
2013-06-05 05:22:00,-999.0,-99.9,30.13,SSW,197,3.0,4.0,-999,-99.99,,,-99.99,,2013-06-05 09:22:00,
2013-06-05 05:33:00,64.0,-99.9,30.13,South,177,4.0,5.0,-999,-99.99,,,-99.99,,2013-06-05 09:33:00,
2013-06-05 05:43:00,64.0,-99.9,30.13,North,-999,-999.0,-999.0,-999,-99.99,,,-99.99,,2013-06-05 09:43:00,
2013-06-05 05:53:00,-999.0,-99.9,30.14,NW,304,4.0,4.0,-999,-99.99,,,-99.99,,2013-06-05 09:53:00,
2013-06-05 06:03:00,63.0,-99.9,30.14,WNW,296,4.0,5.0,-999,-99.99,,,-99.99,,2013-06-05 10:03:00,
2013-06-05 06:13:00,63.0,-99.9,30.14,WNW,286,2.0,4.0,-999,-99.99,,,-99.99,,2013-06-05 10:13:00,
2013-06-05 06:23:00,-999.0,-99.9,30.15,NW,304,2.0,3.0,-999,-99.99,,,-99.99,,2013-06-05 10:23:00,
2013-06-05 06:33:00,63.0,-99.9,30.14,WNW,303,1.0,3.0,-999,-99.99,,,-99.99,,2013-06-05 10:33:00,
2013-06-05 06:43:00,63.0,-99.9,30.15,North,-999,-999.0,-999.0,-999,-99.99,,,-99.99,,2013-06-05 10:43:00,
2013-06-05 06:53:00,64.0,-99.9,30.15,North,-999,-999.0,-999.0,-999,-99.99,,,-99.99,,2013-06-05 10:53:00,
2013-06-05 07:02:00,64.0,-99.9,30.16,SW,217,1.0,2.0,-999,-99.99,,,-99.99,,2013-06-05 11:02:00,
2013-06-05 07:13:00,65.0,-99.9,30.16,SW,235,0.0,1.0,-999,-99.99,,,-99.99,,2013-06-05 11:13:00,
2013-06-05 07:22:00,66.0,-99.9,30.15,North,-999,-999.0,-999.0,-999,-99.99,,,-99.99,,2013-06-05 11:22:00,
2013-06-05 07:33:00,66.0,-99.9,30.16,SE,141,0.0,2.0,-999,-99.99,,,-99.99,,2013-06-05 11:33:00,
2013-06-05 07:42:00,-999.0,-99.9,30.16,ENE,60,5.0,7.0,-999,-99.99,,,-99.99,,2013-06-05 11:42:00,
2013-06-05 07:52:00,-999.0,-99.9,30.17,NNE,19,5.0,9.0,-999,-99.99,,,-99.99,,2013-06-05 11:52:00,
2013-06-05 08:02:00,66.0,-99.9,30.17,NNE,33,3.0,8.0,-999,-99.99,,,-99.99,,2013-06-05 12:02:00,
2013-06-05 08:12:00,-999.0,-99.9,30.17,NNE,29,3.0,6.0,-999,-99.99,,,-99.99,,2013-06-05 12:12:00,
2013-06-05 08:22:00,-999.0,-99.9,30.16,ENE,60,2.0,4.0,-999,-99.99,,,-99.99,,2013-06-05 12:22:00,
2013-06-05 08:32:00,69.0,-99.9,30.16,ENE,60,4.0,8.0,-999,-99.99,,,-99.99,,2013-06-05 12:32:00,
2013-06-05 08:44:00,70.0,-99.9,30.16,East,100,2.0,4.0,-999,-99.99,,,-99.99,,2013-06-05 12:44:00,
2013-06-05 08:52:00,71.0,-99.9,30.17,North,-999,-999.0,-999.0,-999,-99.99,,,-99.99,,2013-06-05 12:52:00,
2013-06-05 09:02:00,71.0,-99.9,30.17,North,349,1.0,4.0,-999,-99.99,,,-99.99,,2013-06-05 13:02:00,
2013-06-05 09:12:00,71.0,-99.9,30.17,North,-999,-999.0,-999.0,-999,-99.99,,,-99.99,,2013-06-05 13:12:00,
2013-06-05 09:22:00,-999.0,-99.9,30.17,ESE,116,4.0,5.0,-999,-99.99,,,-99.99,,2013-06-05 13:22:00,
2013-06-05 09:33:00,71.0,-99.9,30.16,NE,41,1.0,5.0,-999,-99.99,,,-99.99,,2013-06-05 13:33:00,
2013-06-05 09:42:00,72.0,-99.9,30.16,ESE,116,0.0,4.0,-999,-99.99,,,-99.99,,2013-06-05 13:42:00,
2013-06-05 09:53:00,-999.0,-99.9,30.17,ESE,113,4.0,6.0,-999,-99.99,,,-99.99,,2013-06-05 13:53:00,
2013-06-05 10:02:00,72.0,-99.9,30.17,SSE,160,1.0,5.0,-999,-99.99,,,-99.99,,2013-06-05 14:02:00,
2013-06-05 10:13:00,-999.0,-99.9,30.17,SE,143,1.0,4.0,-999,-99.99,,,-99.99,,2013-06-05 14:13:00,
2013-06-05 10:22:00,72.0,-99.9,30.16,North,-999,-999.0,-999.0,-999,-99.99,,,-99.99,,2013-06-05 14:22:00,
2013-06-05 10:32:00,72.0,-99.9,30.16,SE,129,4.0,6.0,-999,-99.99,,,-99.99,,2013-06-05 14:32:00,
2013-06-05 10:42:00,73.0,-99.9,30.16,North,-999,-999.0,-999.0,-999,-99.99,,,-99.99,,2013-06-05 14:42:00,
2013-06-05 10:52:00,-999.0,-99.9,30.15,SE,137,3.0,6.0,-999,-99.99,,,-99.99,,2013-06-05 14:52:00,
2013-06-05 11:03:00,74.0,-99.9,30.15,West,268,2.0,2.0,-999,-99.99,,,-99.99,,2013-06-05 15:03:00,
2013-06-05 11:12:00,75.0,-99.9,30.15,West,277,1.0,8.0,-999,-99.99,,,-99.99,,2013-06-05 15:12:00,
2013-06-05 11:23:00,75.0,-99.9,30.14,North,-999,-999.0,-999.0,-999,-99.99,,,-99.99,,2013-06-05 15:23:00,
2013-06-05 11:33:00,74.0,-99.9,30.14,SE,144,8.0,10.0,-999,-99.99,,,-99.99,,2013-06-05 15:33:00,
2013-06-05 11:43:00,74.0,-99.9,30.14,North,-999,-999.0,-999.0,-999,-99.99,,,-99.99,,2013-06-05 15:43:00,
2013-06-05 11:53:00,-999.0,-99.9,30.13,SE,143,8.0,12.0,-999,-99.99,,,-99.99,,2013-06-05 15:53:00,
2013-06-05 12:04:00,75.0,-99.9,30.14,SSE,163,2.0,9.0,-999,-99.99,,,-99.99,,2013-06-05 16:04:00,
2013-06-05 12:13:00,75.0,-99.9,30.13,SE,127,7.0,9.0,-999,-99.99,,,-99.99,,2013-06-05 16:13:00,
2013-06-05 12:23:00,-999.0,-99.9,30.13,South,171,8.0,11.0,-999,-99.99,,,-99.99,,2013-06-05 16:23:00,
2013-06-05 12:32:00,75.0,-99.9,30.13,SE,140,9.0,13.0,-999,-99.99,,,-99.99,,2013-06-05 16:32:00,
2013-06-05 12:42:00,75.0,-99.9,30.13,North,-999,-999.0,-999.0,-999,-99.99,,,-99.99,,2013-06-05 16:42:00,
2013-06-05 12:54:00,75.0,-99.9,30.13,North,-999,-999.0,-999.0,-999,-99.99,,,-99.99,,2013-06-05 16:54:00,
2013-06-05 13:03:00,75.0,-99.9,30.13,South,184,9.0,13.0,-999,-99.99,,,-99.99,,2013-06-05 17:03:00,
2013-06-05 13:13:00,75.0,-99.9,30.12,SSE,147,9.0,16.0,-999,-99.99,,,-99.99,,2013-06-05 17:13:00,
2013-06-05 13:22:00,-999.0,-99.9,30.12,South,179,9.0,13.0,-999,-99.99,,,-99.99,,2013-06-05 17:22:00,
2013-06-05 13:33:00,75.0,-99.9,30.12,South,186,5.0,11.0,-999,-99.99,,,-99.99,,2013-06-05 17:33:00,
2013-06-05 13:43:00,76.0,-99.9,30.11,North,-999,-999.0,-999.0,-999,-99.99,,,-99.99,,2013-06-05 17:43:00,
2013-06-05 13:52:00,76.0,-99.9,30.11,North,-999,-999.0,-999.0,-999,-99.99,,,-99.99,,2013-06-05 17:52:00,
2013-06-05 14:02:00,76.0,-99.9,30.11,SSE,157,7.0,8.0,-999,-99.99,,,-99.99,,2013-06-05 18:02:00,
2013-06-05 14:13:00,-999.0,-99.9,30.11,South,181,10.0,14.0,-999,-99.99,,,-99.99,,2013-06-05 18:13:00,
2013-06-05 14:23:00,76.0,-99.9,30.11,North,-999,-999.0,-999.0,-999,-99.99,,,-99.99,,2013-06-05 18:23:00,
2013-06-05 14:32:00,76.0,-99.9,30.10,South,170,6.0,10.0,-999,-99.99,,,-99.99,,2013-06-05 18:32:00,
2013-06-05 14:42:00,76.0,-99.9,30.10,South,187,4.0,11.0,-999,-99.99,,,-99.99,,2013-06-05 18:42:00,
2013-06-05 14:52:00,-999.0,-99.9,30.10,SE,139,7.0,9.0,-999,-99.99,,,-99.99,,2013-06-05 18:52:00,
2013-06-05 15:03:00,77.0,-99.9,30.09,SE,144,5.0,10.0,-999,-99.99,,,-99.99,,2013-06-05 19:03:00,
2013-06-05 15:13:00,78.0,-99.9,30.09,North,-999,-999.0,-999.0,-999,-99.99,,,-99.99,,2013-06-05 19:13:00,
2013-06-05 15:23:00,77.0,-99.9,30.08,North,-999,-999.0,-999.0,-999,-99.99,,,-99.99,,2013-06-05 19:23:00,
2013-06-05 15:32:00,78.0,-99.9,30.08,SSE,160,5.0,6.0,-999,-99.99,,,-99.99,,2013-06-05 19:32:00,
2013-06-05 15:42:00,77.0,-99.9,30.08,South,171,8.0,14.0,-999,-99.99,,,-99.99,,2013-06-05 19:42:00,
2013-06-05 15:53:00,77.0,-99.9,30.08,North,-999,-999.0,-999.0,-999,-99.99,,,-99.99,,2013-06-05 19:53:00,
2013-06-05 16:03:00,78.0,-99.9,30.08,SSE,165,7.0,8.0,-999,-99.99,,,-99.99,,2013-06-05 20:03:00,
2013-06-05 16:12:00,77.0,-99.9,30.08,North,-999,-999.0,-999.0,-999,-99.99,,,-99.99,,2013-06-05 20:12:00,
2013-06-05 16:23:00,-999.0,-99.9,30.08,SSE,148,10.0,14.0,-999,-99.99,,,-99.99,,2013-06-05 20:23:00,
2013-06-05 16:32:00,77.0,-99.9,30.08,SSE,156,9.0,13.0,-999,-99.99,,,-99.99,,2013-06-05 20:32:00,
2013-06-05 16:42:00,-999.0,-99.9,30.08,SSE,165,11.0,14.0,-999,-99.99,,,-99.99,,2013-06-05 20:42:00,
2013-06-05 16:52:00,78.0,-99.9,30.07,North,-999,-999.0,-999.0,-999,-99.99,,,-99.99,,2013-06-05 20:52:00,
2013-06-05 17:02:00,78.0,-99.9,30.07,South,175,8.0,12.0,-999,-99.99,,,-99.99,,2013-06-05 21:02:00,
2013-06-05 17:12:00,77.0,-99.9,30.08,South,183,10.0,13.0,-999,-99.99,,,-99.99,,2013-06-05 21:12:00,
2013-06-05 17:23:00,78.0,-99.9,30.08,North,-999,-999.0,-999.0,-999,-99.99,,,-99.99,,2013-06-05 21:23:00,
2013-06-05 17:33:00,78.0,-99.9,30.07,SSE,158,9.0,15.0,-999,-99.99,,,-99.99,,2013-06-05 21:33:00,
2013-06-05 17:43:00,78.0,-99.9,30.07,North,-999,-999.0,-999.0,-999,-99.99,,,-99.99,,2013-06-05 21:43:00,
2013-06-05 17:53:00,78.0,-99.9,30.07,North,-999,-999.0,-999.0,-999,-99.99,,,-99.99,,2013-06-05 21:53:00,
2013-06-05 18:03:00,78.0,-99.9,30.07,South,177,9.0,13.0,-999,-99.99,,,-99.99,,2013-06-05 22:03:00,
2013-06-05 18:13:00,78.0,-99.9,30.07,SSE,155,7.0,13.0,-999,-99.99,,,-99.99,,2013-06-05 22:13:00,
2013-06-05 18:23:00,-999.0,-99.9,30.07,SSE,159,8.0,9.0,-999,-99.99,,,-99.99,,2013-06-05 22:23:00,
2013-06-05 18:33:00,78.0,-99.9,30.07,South,171,9.0,12.0,-999,-99.99,,,-99.99,,2013-06-05 22:33:00,
2013-06-05 18:43:00,78.0,-99.9,30.07,North,-999,-999.0,-999.0,-999,-99.99,,,-99.99,,2013-06-05 22:43:00,
2013-06-05 18:53:00,-999.0,-99.9,30.06,SSE,168,10.0,12.0,-999,-99.99,,,-99.99,,2013-06-05 22:53:00,
2013-06-05 19:02:00,78.0,-99.9,30.07,SSE,159,7.0,11.0,-999,-99.99,,,-99.99,,2013-06-05 23:02:00,
2013-06-05 19:12:00,78.0,-99.9,30.06,North,-999,-999.0,-999.0,-999,-99.99,,,-99.99,,2013-06-05 23:12:00,
2013-06-05 19:22:00,-999.0,-99.9,30.06,SSE,162,11.0,11.0,-999,-99.99,,,-99.99,,2013-06-05 23:22:00,
2013-06-05 19:32:00,78.0,-99.9,30.06,SSE,152,8.0,14.0,-999,-99.99,,,-99.99,,2013-06-05 23:32:00,
2013-06-05 19:42:00,78.0,-99.9,30.06,SE,146,9.0,14.0,-999,-99.99,,,-99.99,,2013-06-05 23:42:00,
2013-06-05 19:53:00,-999.0,-99.9,30.05,SE,135,10.0,13.0,-999,-99.99,,,-99.99,,2013-06-05 23:53:00,
2013-06-05 20:02:00,77.0,-99.9,30.05,SE,134,11.0,13.0,-999,-99.99,,,-99.99,,2013-06-06 00:02:00,
2013-06-05 20:12:00,77.0,-99.9,30.05,North,-999,-999.0,-999.0,-999,-99.99,,,-99.99,,2013-06-06 00:12:00,
2013-06-05 20:22:00,77.0,-99.9,30.05,North,-999,-999.0,-999.0,-999,-99.99,,,-99.99,,2013-06-06 00:22:00,
2013-06-05 20:32:00,76.0,-99.9,30.05,SE,137,8.0,11.0,-999,-99.99,,,-99.99,,2013-06-06 00:32:00,
2013-06-05 20:43:00,76.0,-99.9,30.05,North,-999,-999.0,-999.0,-999,-99.99,,,-99.99,,2013-06-06 00:43:00,
2013-06-05 20:52:00,-999.0,-99.9,30.05,SSE,149,8.0,10.0,-999,-99.99,,,-99.99,,2013-06-06 00:52:00,
2013-06-05 21:02:00,75.0,-99.9,30.05,SE,143,6.0,12.0,-999,-99.99,,,-99.99,,2013-06-06 01:02:00,
2013-06-05 21:13:00,75.0,-99.9,30.05,SSE,157,9.0,12.0,-999,-99.99,,,-99.99,,2013-06-06 01:13:00,
2013-06-05 21:22:00,74.0,-99.9,30.05,North,-999,-999.0,-999.0,-999,-99.99,,,-99.99,,2013-06-06 01:22:00,
2013-06-05 21:32:00,74.0,-99.9,30.05,SE,141,8.0,11.0,-999,-99.99,,,-99.99,,2013-06-06 01:32:00,
2013-06-05 21:42:00,-999.0,-99.9,30.05,SSE,148,10.0,12.0,-999,-99.99,,,-99.99,,2013-06-06 01:42:00,
2013-06-05 21:53:00,73.0,-99.9,30.05,North,-999,-999.0,-999.0,-999,-99.99,,,-99.99,,2013-06-06 01:53:00,
2013-06-05 22:02:00,73.0,-99.9,30.06,SSE,150,8.0,11.0,-999,-99.99,,,-99.99,,2013-06-06 02:02:00,
2013-06-05 22:12:00,-999.0,-99.9,30.06,SSE,149,11.0,12.0,-999,-99.99,,,-99.99,,2013-06-06 02:12:00,
2013-06-05 22:22:00,72.0,-99.9,30.06,North,-999,-999.0,-999.0,-999,-99.99,,,-99.99,,2013-06-06 02:22:00,
2013-06-05 22:32:00,72.0,-99.9,30.07,SSE,160,10.0,12.0,-999,-99.99,,,-99.99,,2013-06-06 02:32:00,
2013-06-05 22:42:00,72.0,-99.9,30.07,SSE,160,10.0,12.0,-999,-99.99,,,-99.99,,2013-06-06 02:42:00,
2013-06-05 22:52:00,72.0,-99.9,30.07,SSE,160,10.0,12.0,-999,-99.99,,,-99.99,,2013-06-06 02:52:00,
2013-06-05 23:02:00,71.0,-99.9,30.07,SSE,159,11.0,15.0,-999,-99.99,,,-99.99,,2013-06-06 03:02:00,
2013-06-05 23:12:00,71.0,-99.9,30.07,North,-999,-999.0,-999.0,-999,-99.99,,,-99.99,,2013-06-06 03:12:00,
2013-06-05 23:22:00,-999.0,-99.9,30.08,SSE,161,9.0,12.0,-999,-99.99,,,-99.99,,2013-06-06 03:22:00,
2013-06-05 23:33:00,70.0,-99.9,30.08,South,174,8.0,11.0,-999,-99.99,,,-99.99,,2013-06-06 03:33:00,
2013-06-05 23:43:00,70.0,-99.9,30.09,South,178,8.0,10.0,-999,-99.99,,,-99.99,,2013-06-06 03:43:00,
2013-06-05 23:53:00,-999.0,-99.9,30.09,South,175,9.0,11.0,-999,-99.99,,,-99.99,,2013-06-06 03:53:00,